Skip Page Navigation
NASA JPL Caltech
NASA Logo - Jet Propulsion Laboratory + View the NASA Portal
+ Center for Near-Earth Object Studies
JPL Home Earth Solar System Stars & Galaxies Technology
JPL Solar System Dynamics
BODIES ORBITS EPHEMERIDES TOOLS PHYSICAL DATA DISCOVERY FAQ SITE MAP

Significant website upgrade scheduled for September 27. More details available here.

JPL Small-Body Database Browser
Search: [ help ]  
6462 Myougi (1994 AF2)
Classification: Outer Main-belt Asteroid          SPK-ID: 2006462
Ephemeris | Orbit Diagram | Orbital Elements | Mission Design | Physical Parameters | Discovery Circumstances | Close-Approach Data ]

[ hide orbit diagram ]

For accurate long-term ephemerides, please instead use our Horizons system.This orbit viewer was implemented using two-body methods, and hence should not be used for determining accurate long-term trajectories (over several years or decades) or planetary encounter circumstances.


Orbital Elements at Epoch 2459396.5 (2021-Jul-01.0) TDB
Reference: JPL 43 (heliocentric ecliptic J2000)
 Element Value Uncertainty (1-sigma)   Units 
e .05811421332435973 1.0567e-08  
a 3.202249769137489 2.0112e-08 au
q 3.016153542935951 3.4061e-08 au
i 16.41270532537192 7.4949e-07 deg
node 107.7812693253879 3.6083e-06 deg
peri 270.1529218892283 2.6506e-05 deg
M 17.95427589210139 2.3515e-05 deg
tp 2459292.112949868482
(2021-Mar-18.61294987)
0.00013681 TDB
period 2093.057847232848
5.73
1.9719e-05
5.399e-08
d
yr
n .1719971574010447 1.6204e-09 deg/d
Q 3.388345995339026 2.1281e-08 au
  Orbit Determination Parameters
   # obs. used (total)      2160  
   data-arc span      16069 days (43.99 yr)  
   first obs. used      1977-02-12  
   last obs. used      2021-02-10  
   planetary ephem.      DE441  
   SB-pert. ephem.      SB441-N16  
   condition code      0  
   norm. resid. RMS      .44466  
   source      ORB  
   producer      Otto Matic  
   solution date      2021-Aug-25 11:49:05  

Additional Information
 Earth MOID = 2.07495 au 
 Jupiter MOID = 1.97609 au 
 T_jup = 3.127 
[ show covariance matrix ]

Ephemeris | Orbit Diagram | Orbital Elements | Mission Design | Physical Parameters | Discovery Circumstances | Close-Approach Data ]

Physical Parameter Table
Parameter Symbol Value Units Sigma Reference Notes
absolute magnitude H 12.46   n/a E2021B10  
diameter diameter 21.465 km 0.197 urn:nasa:pds:neowise_diameters_albedos::2.0[mainbelt] (http://adsabs.harvard.edu/abs/2011ApJ...741...68M)  
geometric albedo albedo 0.059   0.001 urn:nasa:pds:neowise_diameters_albedos::2.0[mainbelt] (http://adsabs.harvard.edu/abs/2011ApJ...741...68M)  

6462 Myougi           Discovered 1994 Jan. 9 by T. Kobayashi at Oizumi.
Also one of the Three Jomo Mountains, Mt. Myougi, 1104 m above sea level and created by volcanic activity, is located at the southwestern part of Gunma prefecture.
NOTE: some special characters may not display properly (any characters within {} are an attempt to place the proper accent above a character)
Reference: 20030106/MPCPages.arcLast Updated: 2003-10-02

[ show close-approach data ]
Alternate Designations
 1994 AF2 = 1977 CX2 = 1987 WE2 
Ephemeris | Orbit Diagram | Orbital Elements | Mission Design | Physical Parameters | Discovery Circumstances | Close-Approach Data ]
ABOUT SSD CREDITS/AWARDS PRIVACY/COPYRIGHT GLOSSARY LINKS
FirstGov 2021-Sep-23 11:31 UT
(server date/time)  
NASA Home Page
Site Manager:   Ryan S. Park
Webmaster  Alan B. Chamberlin